Regional Weather Roundup
Issued by NWS Charleston, WV

Home | Current Version | Previous Version | Text Only | Print | Product List | Glossary On
Versions: 1 2 3 4 5 6 7 8 9 10 11 12 13 14 15 16 17 18 19 20 21 22 23 24 25 26 27 28
000
ASUS41 KRLX 310710
RWRRLX
Regional Weather Roundup
National Weather Service Charleston WV
300 AM EDT SAT JUL 31 2021

Note: "fair" indicates few or no clouds below 12,000 feet with no
significant weather and/or obstructions to visibility.

WVZ003-310800-
Northern Panhandle of West Virginia

CITY           SKY/WX    TMP DP  RH WIND       PRES   REMARKS
WHEELING       MOCLDY    61  53  75 NE3       30.07F
$$

WVZ009-310800-
Northwest West Virginia

CITY           SKY/WX    TMP DP  RH WIND       PRES   REMARKS
PARKERSBURG    CLOUDY    64  57  78 N5        30.06S
$$

WVZ006-310800-
Western West Virginia

CITY           SKY/WX    TMP DP  RH WIND       PRES   REMARKS
HUNTINGTON     MOCLDY    67  65  93 CALM      30.02F FOG
$$

WVZ015-310800-
West Central West Virginia

CITY           SKY/WX    TMP DP  RH WIND       PRES   REMARKS
CHARLESTON     MOCLDY    65  64  97 CALM      30.02F
$$

WVZ509-031-039-310800-
North Central West Virginia

CITY           SKY/WX    TMP DP  RH WIND       PRES   REMARKS
MORGANTOWN     NOT AVBL
CLARKSBURG     MOCLDY    62  58  86 NE5       30.06F
BUCKHANNON     CLOUDY    63  61  94 CALM      30.06F
$$

WVZ515-516-025-034-042-507-310800-
Southern West Virginia

CITY           SKY/WX    TMP DP  RH WIND       PRES   REMARKS
BECKLEY        PTCLDY    62  59  90 CALM      30.08F
LOGAN          FAIR      66  66 100 CALM      30.04F
PINEVILLE      CLEAR     64  62  94 MISG      30.09F FOG
BLUEFIELD      CLEAR     62  59  90 CALM      30.09F
LEWISBURG      PTCLDY    61  59  94 CALM      30.08F
$$

WVZ525-526-310800-
Northern Mountains of West Virginia

CITY           SKY/WX    TMP DP  RH WIND       PRES   REMARKS
ELKINS         MOCLDY    60  56  86 CALM      30.08F FOG
$$

WVZ502-504-052-310800-
Eastern Panhandle of West Virginia

CITY           SKY/WX    TMP DP  RH WIND       PRES   REMARKS
PETERSBURG     MOCLDY    63  63 100 CALM      30.04F
CUMBERLAND     MOCLDY    62  55  76 CALM      30.08F
MARTINSBURG    PTCLDY    67  51  56 VRB5      30.01S
$$

OHZ075-083-KYZ101-310800-
Southeast Ohio/Northeast Kentucky

CITY           SKY/WX    TMP DP  RH WIND       PRES   REMARKS
ATHENS         CLOUDY    65  60  85 CALM      30.04F
JACKSON        FAIR      68  61  77 CALM      30.05F
ASHLAND        MOCLDY    68  67  96 CALM      30.03F
$$



USA.gov is the U.S. government's official web portal to all federal, state and local government web resources and services.